Regional Weather Roundup
Issued by NWS

Home | Current Version | Previous Version | Text Only | Print | Product List | Glossary Off
Versions: 1 2 3 4 5 6 7 8 9 10 11 12 13 14 15 16 17 18 19 20 21 22 23 24 25 26 27 28 29 30 31 32 33 34 35 36 37 38 39 40 41 42 43 44 45 46 47 48 49 50

000
ASUS43 KBIS 230110
RWRND

NORTH DAKOTA REGIONAL WEATHER ROUNDUP
NATIONAL WEATHER SERVICE BISMARCK ND
700 PM CST MON JAN 22 2018

NOTE: "FAIR" INDICATES FEW OR NO CLOUDS BELOW 12,000 FEET WITH NO
SIGNIFICANT WEATHER AND/OR OBSTRUCTIONS TO VISIBILITY.


NDZ001>003-009>011-017-230200-
NORTHWEST NORTH DAKOTA

CITY           SKY/WX    TMP DP  RH WIND       PRES   REMARKS
WILLISTON      MOCLDY    25  18  74 SW6       29.98S WCI  18
MINOT          CLOUDY    20  17  88 S13       30.01F FOG     WCI   7
MINOT AFB      CLOUDY    19  16  86 S8        30.00F FOG     WCI   9
$$

NDZ018>021-031>035-040>046-230200-
SOUTHWEST NORTH DAKOTA

CITY           SKY/WX    TMP DP  RH WIND       PRES   REMARKS
BISMARCK       CLOUDY    23  21  92 W5        30.05S FOG     WCI  17
DICKINSON      PTCLDY    19  16  88 SW6       29.96F WCI  11
GARRISON         N/A     17  14  88 S3        30.02S
HETTINGER ARPT CLEAR     20  15  81 NW3       30.01R
$$

NDZ004>008-012>016-024-026-027-054-230200-
NORTHEAST NORTH DAKOTA

CITY           SKY/WX    TMP DP  RH WIND       PRES   REMARKS
GRAND FORKS    CLOUDY    25  20  81 NE10      30.08S WCI  15
GRND FRKS AFB  CLOUDY    24  19  79 NE9       30.07F WCI  14
DEVILS LAKE    CLOUDY    20  18  92 SE5       30.06  WCI  13
$$

NDZ022-023-025-028>030-036>039-047>053-230200-
SOUTHEAST NORTH DAKOTA

CITY           SKY/WX    TMP DP  RH WIND       PRES   REMARKS
FARGO          CLOUDY    25  21  85 N17G24    30.03S WCI  12
JAMESTOWN      CLOUDY    21  20  96 NE8       30.03F WCI  11
$$




USA.gov is the U.S. government's official web portal to all federal, state and local government web resources and services.